Location: Ciserano
(45.5833°N, 9.6000°E)
Time: 22:10:48
(UTC+00:00)

FALCON 9 DEB - Pass Details

Date: 19 June 2021
Orbit: 364 x 377 km, 53.0° (Epoch: 26 July)

Event Time Altitude Azimuth Distance (km) Brightness Sun altitude
Rises 01:57:23 0° 303° (WNW) 2,270 6.7 -12.6°
Reaches altitude 10° 01:59:32 10° 311° (NW) 1,413 5.8 -12.4°
Maximum altitude 02:02:32 39° 23° (NNE) 592 4.4 -12.0°
Drops below altitude 10° 02:05:31 10° 94° (E) 1,402 6.2 -11.7°
Sets 02:07:38 0° 103° (ESE) 2,250 7.1 -11.5°
